This is the latest recevied weather packets stored in our database for station/object KD7MPG-3. If no packets are shown the sender has not sent any weather packets the latest 10 day(s).
| Time | Temp. | Humidity | Pressure | Rain* | Wind** | Luminosity | Snow |
|---|---|---|---|---|---|---|---|
| 1777691281 | 14.44° C | 77% | 1023.9 hPa | 0 mm | - | - | - |
| 1777690981 | 15° C | 77% | 1023.8 hPa | 0 mm | - | - | - |
| 1777690679 | 15° C | 76% | 1023.7 hPa | 0 mm | - | - | - |
| 1777690377 | 15.56° C | 76% | 1023.6 hPa | 0 mm | - | - | - |
| 1777690075 | 15.56° C | 75% | 1023.6 hPa | 0 mm | - | - | - |
| 1777689775 | 15.56° C | 75% | 1023.5 hPa | 0 mm | - | - | - |
| 1777689475 | 16.11° C | 74% | 1023.5 hPa | 0 mm | - | - | - |
| 1777689181 | 16.11° C | 74% | 1023.4 hPa | 0 mm | - | - | - |
| 1777688873 | 16.11° C | 74% | 1023.6 hPa | 0 mm | - | - | - |
| 1777688571 | 16.11° C | 73% | 1023.5 hPa | 0 mm | - | - | - |
| 1777688269 | 16.67° C | 73% | 1023.4 hPa | 0 mm | - | - | - |
| 1777687969 | 16.67° C | 73% | 1023.4 hPa | 0 mm | - | - | - |
| 1777687669 | 16.67° C | 72% | 1023.3 hPa | 0 mm | - | - | - |
| 1777687370 | 16.67° C | 73% | 1023.3 hPa | 0 mm | - | - | - |
| 1777687064 | 17.22° C | 72% | 1023.3 hPa | 0 mm | - | - | - |
| 1777686763 | 17.22° C | 71% | 1023.3 hPa | 0 mm | - | - | - |
| 1777686463 | 17.78° C | 70% | 1023.2 hPa | 0 mm | - | - | - |
| 1777686163 | 18.33° C | 70% | 1023.2 hPa | 0 mm | - | - | - |
| 1777685863 | 18.33° C | 69% | 1023.1 hPa | 0 mm | - | - | - |
| 1777685562 | 18.89° C | 69% | 1023.2 hPa | 0 mm | - | - | - |
| 1777685257 | 18.89° C | 68% | 1023.1 hPa | 0 mm | - | - | - |
| 1777684957 | 19.44° C | 68% | 1023.2 hPa | 0 mm | - | - | - |
| 1777684657 | 19.44° C | 67% | 1023.3 hPa | 0 mm | - | - | - |
| 1777684357 | 19.44° C | 67% | 1023.3 hPa | 0 mm | - | - | - |
| 1777684057 | 19.44° C | 67% | 1023.3 hPa | 0 mm | - | - | - |
* Rain latest hour (hover to see other rain measurements)
** Current wind speed in m/s (hover to see current wind gust speed)